Volver al catálogo

STARLINK-36698

ActivoComunicacionesSSO
NORAD 67709·PAYLOAD·🇺🇸 United States

Lanzado Feb 7, 2026 desde Vandenberg Space Force Base

Loading…

Próximos Pases (próximas 24 horas)

TLE

ActualizadoSource: CelesTrak SupGP

Época: Sep 15, 2026, 03:47 UTC

1 67709C 26025S   26258.15812500 -.00002026  00000+0 -62874-4 0  2589
2 67709  97.2859   8.2020 0001335  85.1114 193.7516 15.33441505    19

Sigue STARLINK-36698 en tiempo real con AllMySat

Download on the App Store